OBJECT R (43773 NORAD) Tracking and Keplerian Element Data

This shows tracking and keplerian element data for the satellite.

Feedback or suggestion? Click here.




ElementValue
Catalog43773
NameOBJECT R
Epoch Orbit666
Epoch Day17.40301352
Epoch Year2019
RAAN91.0729
Inclination97.7585
Eccentricity0.0015079
Argument of Perigee108.0375
Mean Anonmoly252.249
Mean Motion14.94723661
Decay Rate3.82E-06
L11 43773U 18099R 19017.40301352 .00000382 00000-0 40423-4 0 9997
L22 43773 97.7585 91.0729 0015079 108.0375 252.2490 14.94723661 6666

Live tracking and technical data element details for OBJECT R (NORAD 43773). OBJECT R can be tracked NOW for your location showing map with azimuth and elevation plus other details from your city location.

Track the satellite on the map from your city or location and see movement details for azimuth, elevation, latitude, longitude, range, height, and movement on the map or in text.







IsCatalogInMostPopularTable: catalog: 43773, numindb: 18
Update: records affected: 1



GetName: 43773 OBJECT R

Hit Count: updated at: Fri, 18 Jan 2019 22:30:47 GMT